• Em Portugal
  • Lista de países
  • Para 7 dias
  • Temperatura da água
  • Mapas de satélite
  • Mapa do tempo
  • Widgets de tempo
  • user-avatar
    Iniciar Sessão

    Previsão horária em Karibib

    Hoje, 19 Fevereiro, Segunda-feira

    Tempo Temperatura Precipitação Vento Pressão Humidade
    00:00 +23°C° 0 mm 1 m/s 663 mmHg 37%
    01:00 +22°C° 0 mm 1 m/s 663 mmHg 40%
    02:00 +21°C° 0 mm 1 m/s 663 mmHg 41%
    03:00 +21°C° 0 mm 1 m/s 663 mmHg 42%
    04:00 +20°C° 0 mm 1 m/s 662 mmHg 43%
    05:00 +21°C° 0 mm 1 m/s 663 mmHg 39%
    06:00 +22°C° 0 mm 1 m/s 663 mmHg 36%
    07:00 +23°C° 0 mm 1 m/s 664 mmHg 33%
    08:00 +25°C° 0 mm 1 m/s 664 mmHg 26%
    09:00 +28°C° 0 mm 1 m/s 665 mmHg 19%
    10:00 +30°C° 0 mm 1 m/s 665 mmHg 12%
    11:00 +32°C° 0 mm 2 m/s 665 mmHg 11%
    12:00 +34°C° 0 mm 2 m/s 665 mmHg 10%
    13:00 +35°C° 0 mm 3 m/s 665 mmHg 10%
    14:00 +35°C° 0 mm 4 m/s 665 mmHg 10%
    15:00 +36°C° 0 mm 5 m/s 664 mmHg 11%
    16:00 +36°C° 0 mm 6 m/s 664 mmHg 11%
    17:00 +34°C° 0 mm 6 m/s 664 mmHg 14%
    18:00 +32°C° 0 mm 6 m/s 664 mmHg 18%
    19:00 +29°C° 0 mm 5 m/s 664 mmHg 21%
    20:00 +28°C° 0 mm 5 m/s 664 mmHg 25%
    21:00 +27°C° 0 mm 4 m/s 664 mmHg 29%
    22:00 +25°C° 0 mm 3 m/s 665 mmHg 33%
    23:00 +25°C° 0 mm 3 m/s 664 mmHg 35%

    Amanhã, 20 Fevereiro, Terça-feira

    Tempo Temperatura Precipitação Vento Pressão Humidade
    00:00 +24°C° 0 mm 2 m/s 664 mmHg 37%
    01:00 +23°C° 0 mm 2 m/s 664 mmHg 39%
    02:00 +23°C° 0 mm 1 m/s 663 mmHg 39%
    03:00 +23°C° 0 mm 1 m/s 663 mmHg 40%
    04:00 +22°C° 0 mm 1 m/s 663 mmHg 40%
    05:00 +23°C° 0 mm 1 m/s 663 mmHg 37%
    06:00 +24°C° 0 mm 1 m/s 664 mmHg 34%
    07:00 +25°C° 0 mm 1 m/s 664 mmHg 31%
    08:00 +27°C° 0 mm 2 m/s 665 mmHg 25%
    09:00 +29°C° 0 mm 2 m/s 665 mmHg 19%
    10:00 +31°C° 0 mm 3 m/s 666 mmHg 13%
    11:00 +34°C° 0 mm 3 m/s 665 mmHg 13%
    12:00 +35°C° 0 mm 3 m/s 665 mmHg 12%
    13:00 +36°C° 0 mm 3 m/s 665 mmHg 12%
    14:00 +36°C° 0 mm 4 m/s 664 mmHg 13%
    15:00 +36°C° 0 mm 5 m/s 664 mmHg 13%
    16:00 +36°C° 0 mm 6 m/s 663 mmHg 13%
    17:00 +34°C° 0 mm 6 m/s 663 mmHg 16%
    18:00 +32°C° 0 mm 6 m/s 663 mmHg 18%
    19:00 +29°C° 0 mm 5 m/s 663 mmHg 21%
    20:00 +28°C° 0 mm 4 m/s 664 mmHg 23%
    21:00 +27°C° 0 mm 3 m/s 664 mmHg 25%
    22:00 +26°C° 0 mm 2 m/s 664 mmHg 27%
    23:00 +25°C° 0 mm 2 m/s 664 mmHg 27%

    Depois de amanhã, 21 Fevereiro, Quarta-feira

    Tempo Temperatura Precipitação Vento Pressão Humidade
    00:00 +25°C° 0 mm 2 m/s 664 mmHg 27%
    01:00 +25°C° 0 mm 2 m/s 663 mmHg 27%
    02:00 +24°C° 0 mm 1 m/s 663 mmHg 28%
    03:00 +24°C° 0 mm 1 m/s 663 mmHg 29%
    04:00 +23°C° 0 mm 1 m/s 662 mmHg 31%
    05:00 +24°C° 0 mm 1 m/s 663 mmHg 29%
    06:00 +24°C° 0 mm 1 m/s 663 mmHg 28%
    07:00 +25°C° 0 mm 1 m/s 664 mmHg 27%
    08:00 +27°C° 0 mm 1 m/s 664 mmHg 23%
    09:00 +29°C° 0 mm 2 m/s 664 mmHg 19%
    10:00 +31°C° 0 mm 2 m/s 665 mmHg 15%
    11:00 +33°C° 0 mm 3 m/s 665 mmHg 14%
    12:00 +34°C° 0 mm 3 m/s 664 mmHg 14%
    13:00 +36°C° 0 mm 4 m/s 664 mmHg 14%
    14:00 +35°C° 0 mm 5 m/s 663 mmHg 15%
    15:00 +35°C° 0 mm 6 m/s 663 mmHg 16%
    16:00 +35°C° 0 mm 7 m/s 663 mmHg 17%
    17:00 +32°C° 0 mm 6 m/s 662 mmHg 22%
    18:00 +29°C° 0 mm 6 m/s 662 mmHg 26%
    19:00 +27°C° 0 mm 5 m/s 662 mmHg 31%
    20:00 +26°C° 0 mm 4 m/s 662 mmHg 33%
    21:00 +25°C° 0 mm 3 m/s 663 mmHg 36%
    22:00 +24°C° 0 mm 2 m/s 663 mmHg 38%
    23:00 +24°C° 0 mm 2 m/s 662 mmHg 39%

    22 Fevereiro, Quinta-feira

    Tempo Temperatura Precipitação Vento Pressão Humidade
    00:00 +24°C° 0 mm 2 m/s 662 mmHg 39%
    01:00 +24°C° 0 mm 1 m/s 662 mmHg 40%
    02:00 +24°C° 0 mm 1 m/s 662 mmHg 42%
    03:00 +23°C° 0 mm 1 m/s 661 mmHg 44%
    04:00 +23°C° 0 mm 1 m/s 661 mmHg 46%
    05:00 +23°C° 0 mm 1 m/s 661 mmHg 46%
    06:00 +23°C° 0 mm 1 m/s 662 mmHg 47%
    07:00 +23°C° 0 mm 1 m/s 662 mmHg 48%
    08:00 +25°C° 0 mm 1 m/s 662 mmHg 43%
    09:00 +28°C° 0 mm 2 m/s 663 mmHg 37%
    10:00 +30°C° 0 mm 2 m/s 663 mmHg 32%
    11:00 +32°C° 0 mm 2 m/s 663 mmHg 29%
    12:00 +34°C° 0 mm 3 m/s 663 mmHg 26%
    13:00 +36°C° 0 mm 4 m/s 662 mmHg 23%
    14:00 +35°C° 0 mm 5 m/s 662 mmHg 25%
    15:00 +34°C° 0 mm 6 m/s 662 mmHg 26%
    16:00 +34°C° 0 mm 6 m/s 661 mmHg 28%
    17:00 +32°C° 0 mm 6 m/s 661 mmHg 33%
    18:00 +28°C° 0 mm 6 m/s 661 mmHg 39%
    19:00 +26°C° 0 mm 5 m/s 661 mmHg 44%
    20:00 +25°C° 0 mm 4 m/s 661 mmHg 48%
    21:00 +23°C° 0 mm 4 m/s 662 mmHg 53%
    22:00 +22°C° 0 mm 3 m/s 662 mmHg 57%
    23:00 +23°C° 0 mm 2 m/s 661 mmHg 59%

    23 Fevereiro, Sexta-feira

    Tempo Temperatura Precipitação Vento Pressão Humidade
    00:00 +21°C° 0 mm 2 m/s 661 mmHg 61%
    01:00 +22°C° 0 mm 1 m/s 661 mmHg 63%
    02:00 +22°C° 0 mm 1 m/s 660 mmHg 64%
    03:00 +22°C° 0 mm 1 m/s 660 mmHg 64%
    04:00 +22°C° 0 mm 1 m/s 660 mmHg 64%
    05:00 +22°C° 0 mm 1 m/s 661 mmHg 63%
    06:00 +22°C° 0 mm 1 m/s 661 mmHg 62%
    07:00 +20°C° 0 mm 0 m/s 661 mmHg 60%
    08:00 +25°C° 0 mm 1 m/s 662 mmHg 53%
    09:00 +27°C° 0 mm 1 m/s 662 mmHg 46%
    10:00 +29°C° 0 mm 1 m/s 662 mmHg 39%
    11:00 +31°C° 0 mm 1 m/s 662 mmHg 34%
    12:00 +34°C° 0 mm 2 m/s 662 mmHg 29%
    13:00 +36°C° 0 mm 2 m/s 662 mmHg 24%
    14:00 +35°C° 0 mm 4 m/s 661 mmHg 26%
    15:00 +35°C° 0 mm 5 m/s 661 mmHg 27%
    16:00 +34°C° 0 mm 6 m/s 661 mmHg 28%
    17:00 +33°C° 0 mm 6 m/s 661 mmHg 34%
    18:00 +30°C° 0 mm 6 m/s 661 mmHg 39%
    19:00 +28°C° 0 mm 6 m/s 661 mmHg 45%
    20:00 +27°C° 0 mm 5 m/s 661 mmHg 48%
    21:00 +26°C° 0 mm 4 m/s 661 mmHg 51%
    22:00 +25°C° 0 mm 3 m/s 662 mmHg 55%
    23:00 +25°C° 0 mm 3 m/s 662 mmHg 56%

    24 Fevereiro, Sábado

    Tempo Temperatura Precipitação Vento Pressão Humidade
    00:00 +24°C° 0 mm 2 m/s 661 mmHg 58%
    01:00 +24°C° 0 mm 2 m/s 661 mmHg 60%
    02:00 +23°C° 0 mm 2 m/s 661 mmHg 62%
    03:00 +23°C° 0 mm 2 m/s 661 mmHg 64%
    04:00 +22°C° 0 mm 1 m/s 661 mmHg 66%
    05:00 +22°C° 0 mm 1 m/s 661 mmHg 66%
    06:00 +22°C° 0 mm 1 m/s 661 mmHg 66%
    07:00 +22°C° 0 mm 1 m/s 662 mmHg 66%
    08:00 +24°C° 0 mm 1 m/s 662 mmHg 60%
    09:00 +26°C° 0 mm 1 m/s 662 mmHg 54%
    10:00 +27°C° 0 mm 1 m/s 662 mmHg 48%
    11:00 +29°C° 0 mm 2 m/s 662 mmHg 43%
    12:00 +30°C° 0 mm 3 m/s 663 mmHg 38%
    13:00 +33°C° 0 mm 4 m/s 663 mmHg 33%
    14:00 +33°C° 0 mm 5 m/s 662 mmHg 33%
    15:00 +33°C° 0 mm 6 m/s 662 mmHg 33%
    16:00 +33°C° 0 mm 7 m/s 662 mmHg 33%
    17:00 +30°C° 0 mm 6 m/s 662 mmHg 39%
    18:00 +27°C° 0 mm 6 m/s 662 mmHg 46%
    19:00 +24°C° 0 mm 6 m/s 662 mmHg 52%
    20:00 +23°C° 0 mm 5 m/s 662 mmHg 57%
    21:00 +22°C° 0 mm 4 m/s 662 mmHg 62%
    22:00 +20°C° 0 mm 3 m/s 663 mmHg 68%
    23:00 +20°C° 0 mm 3 m/s 662 mmHg 71%
    Mostrar mais